• în România
  • Lista ţărilor
  • Pe 7 zile
  • Temperatura apei
  • Hartă satelitară
  • Meteo pe hartă
  • Widget-uri
  • user-avatar
    Intrare

    Meteo pe oră la Neelovka

    Astăzi, 25 Iunie, Luni

    Timp Temperatura Precipitaţii Vânt Presiune Umiditate
    00:00 +23°C° 0 mm 2 m/s 753 mmHg 62%
    01:00 +23°C° 0 mm 2 m/s 753 mmHg 65%
    02:00 +22°C° 0 mm 1 m/s 753 mmHg 68%
    03:00 +21°C° 0 mm 1 m/s 753 mmHg 72%
    04:00 +22°C° 0 mm 1 m/s 753 mmHg 71%
    05:00 +23°C° 0 mm 1 m/s 754 mmHg 71%
    06:00 +24°C° 0 mm 1 m/s 754 mmHg 71%
    07:00 +25°C° 0 mm 1 m/s 754 mmHg 66%
    08:00 +27°C° 0 mm 1 m/s 754 mmHg 61%
    09:00 +29°C° 0 mm 1 m/s 754 mmHg 56%
    10:00 +30°C° 0 mm 1 m/s 754 mmHg 52%
    11:00 +31°C° 0 mm 1 m/s 754 mmHg 48%
    12:00 +32°C° 0 mm 1 m/s 755 mmHg 44%
    13:00 +33°C° 0 mm 1 m/s 755 mmHg 42%
    14:00 +33°C° 0 mm 1 m/s 755 mmHg 40%
    15:00 +34°C° 0 mm 1 m/s 754 mmHg 31%
    16:00 +34°C° 0 mm 2 m/s 754 mmHg 35%
    17:00 +34°C° 0 mm 2 m/s 754 mmHg 40%
    18:00 +32°C° 0 mm 2 m/s 754 mmHg 44%
    19:00 +30°C° 0 mm 2 m/s 755 mmHg 52%
    20:00 +27°C° 0 mm 3 m/s 755 mmHg 60%
    21:00 +25°C° 0 mm 3 m/s 755 mmHg 67%
    22:00 +24°C° 0 mm 3 m/s 755 mmHg 71%
    23:00 +24°C° 0 mm 3 m/s 755 mmHg 75%

    Mâine, 26 Iunie, Marţi

    Timp Temperatura Precipitaţii Vânt Presiune Umiditate
    00:00 +22°C° 0 mm 3 m/s 755 mmHg 78%
    01:00 +21°C° 0 mm 3 m/s 755 mmHg 81%
    02:00 +21°C° 0 mm 3 m/s 755 mmHg 83%
    03:00 +20°C° 0 mm 3 m/s 756 mmHg 85%
    04:00 +21°C° 0,1 mm 3 m/s 756 mmHg 84%
    05:00 +22°C° 0,1 mm 3 m/s 756 mmHg 82%
    06:00 +24°C° 0,1 mm 2 m/s 756 mmHg 81%
    07:00 +25°C° 0 mm 2 m/s 756 mmHg 74%
    08:00 +27°C° 0 mm 2 m/s 756 mmHg 68%
    09:00 +29°C° 0 mm 2 m/s 756 mmHg 61%
    10:00 +30°C° 0 mm 2 m/s 755 mmHg 56%
    11:00 +32°C° 0 mm 2 m/s 755 mmHg 51%
    12:00 +34°C° 0 mm 2 m/s 755 mmHg 47%
    13:00 +34°C° 0 mm 2 m/s 755 mmHg 44%
    14:00 +35°C° 0 mm 2 m/s 755 mmHg 42%
    15:00 +34°C° 0 mm 1 m/s 755 mmHg 39%
    16:00 +35°C° 0,1 mm 2 m/s 755 mmHg 43%
    17:00 +34°C° 0,1 mm 2 m/s 755 mmHg 48%
    18:00 +34°C° 0,1 mm 2 m/s 755 mmHg 52%
    19:00 +31°C° 0 mm 2 m/s 755 mmHg 57%
    20:00 +29°C° 0 mm 2 m/s 755 mmHg 63%
    21:00 +27°C° 0 mm 2 m/s 755 mmHg 68%
    22:00 +26°C° 0,6 mm 3 m/s 755 mmHg 71%
    23:00 +25°C° 0,6 mm 3 m/s 755 mmHg 74%

    Poimâine, 27 Iunie, Miercuri

    Timp Temperatura Precipitaţii Vânt Presiune Umiditate
    00:00 +25°C° 0,6 mm 3 m/s 755 mmHg 77%
    01:00 +24°C° 0,1 mm 3 m/s 755 mmHg 78%
    02:00 +24°C° 0,1 mm 3 m/s 755 mmHg 80%
    03:00 +22°C° 0,1 mm 3 m/s 755 mmHg 81%
    04:00 +24°C° 0,1 mm 2 m/s 755 mmHg 80%
    05:00 +24°C° 0,1 mm 2 m/s 755 mmHg 80%
    06:00 +25°C° 0,1 mm 2 m/s 755 mmHg 79%
    07:00 +26°C° 0 mm 2 m/s 755 mmHg 74%
    08:00 +28°C° 0 mm 2 m/s 755 mmHg 69%
    09:00 +29°C° 0 mm 2 m/s 755 mmHg 64%
    10:00 +30°C° 0,4 mm 3 m/s 755 mmHg 59%
    11:00 +31°C° 0,4 mm 3 m/s 755 mmHg 55%
    12:00 +33°C° 0,4 mm 3 m/s 755 mmHg 50%
    13:00 +31°C° 0,1 mm 3 m/s 755 mmHg 53%
    14:00 +30°C° 0,1 mm 4 m/s 755 mmHg 57%
    15:00 +30°C° 0,1 mm 5 m/s 755 mmHg 60%
    16:00 +29°C° 0 mm 4 m/s 755 mmHg 63%
    17:00 +28°C° 0 mm 4 m/s 755 mmHg 65%
    18:00 +28°C° 0 mm 3 m/s 755 mmHg 68%
    19:00 +26°C° 0,1 mm 3 m/s 755 mmHg 74%
    20:00 +25°C° 0,1 mm 3 m/s 755 mmHg 80%
    21:00 +24°C° 0,1 mm 3 m/s 755 mmHg 86%
    22:00 +22°C° 0 mm 3 m/s 755 mmHg 87%
    23:00 +22°C° 0 mm 3 m/s 755 mmHg 88%

    28 Iunie, Joi

    Timp Temperatura Precipitaţii Vânt Presiune Umiditate
    00:00 +21°C° 0 mm 3 m/s 755 mmHg 89%
    01:00 +21°C° 0 mm 3 m/s 755 mmHg 89%
    02:00 +20°C° 0 mm 3 m/s 755 mmHg 89%
    03:00 +20°C° 0 mm 3 m/s 755 mmHg 89%
    04:00 +21°C° 0 mm 3 m/s 755 mmHg 85%
    05:00 +21°C° 0 mm 4 m/s 755 mmHg 82%
    06:00 +22°C° 0 mm 4 m/s 755 mmHg 78%
    07:00 +23°C° 0 mm 4 m/s 755 mmHg 72%
    08:00 +25°C° 0 mm 5 m/s 755 mmHg 66%
    09:00 +27°C° 0 mm 5 m/s 755 mmHg 60%
    10:00 +27°C° 0 mm 5 m/s 755 mmHg 57%
    11:00 +28°C° 0 mm 5 m/s 755 mmHg 53%
    12:00 +29°C° 0 mm 5 m/s 754 mmHg 49%
    13:00 +29°C° 0 mm 5 m/s 754 mmHg 48%
    14:00 +29°C° 0 mm 5 m/s 754 mmHg 47%
    15:00 +29°C° 0 mm 5 m/s 754 mmHg 47%
    16:00 +28°C° 0 mm 4 m/s 754 mmHg 51%
    17:00 +28°C° 0 mm 4 m/s 754 mmHg 55%
    18:00 +28°C° 0 mm 3 m/s 754 mmHg 59%
    19:00 +26°C° 0 mm 3 m/s 754 mmHg 63%
    20:00 +24°C° 0 mm 3 m/s 754 mmHg 68%
    21:00 +21°C° 0 mm 3 m/s 754 mmHg 73%
    22:00 +20°C° 0 mm 3 m/s 754 mmHg 75%
    23:00 +20°C° 0 mm 3 m/s 754 mmHg 77%

    29 Iunie, Vineri

    Timp Temperatura Precipitaţii Vânt Presiune Umiditate
    00:00 +19°C° 0 mm 3 m/s 754 mmHg 79%
    01:00 +18°C° 0 mm 3 m/s 753 mmHg 79%
    02:00 +18°C° 0 mm 3 m/s 753 mmHg 80%
    03:00 +17°C° 0 mm 3 m/s 753 mmHg 80%
    04:00 +18°C° 0 mm 3 m/s 753 mmHg 78%
    05:00 +19°C° 0 mm 3 m/s 753 mmHg 76%
    06:00 +20°C° 0 mm 3 m/s 753 mmHg 74%
    07:00 +22°C° 0 mm 3 m/s 753 mmHg 68%
    08:00 +24°C° 0 mm 3 m/s 753 mmHg 62%
    09:00 +26°C° 0 mm 4 m/s 753 mmHg 56%
    10:00 +27°C° 0 mm 3 m/s 752 mmHg 52%
    11:00 +28°C° 0 mm 3 m/s 752 mmHg 48%
    12:00 +28°C° 0 mm 3 m/s 752 mmHg 44%
    13:00 +29°C° 0 mm 3 m/s 752 mmHg 43%
    14:00 +29°C° 0 mm 3 m/s 751 mmHg 42%
    15:00 +29°C° 0 mm 2 m/s 751 mmHg 41%
    16:00 +29°C° 0 mm 2 m/s 751 mmHg 45%
    17:00 +29°C° 0 mm 2 m/s 751 mmHg 49%
    18:00 +28°C° 0 mm 2 m/s 750 mmHg 53%
    19:00 +26°C° 0 mm 2 m/s 750 mmHg 58%
    20:00 +25°C° 0 mm 2 m/s 750 mmHg 62%
    21:00 +23°C° 0 mm 2 m/s 750 mmHg 66%
    22:00 +21°C° 0 mm 2 m/s 750 mmHg 69%
    23:00 +20°C° 0 mm 2 m/s 750 mmHg 72%

    30 Iunie, Sâmbătă

    Timp Temperatura Precipitaţii Vânt Presiune Umiditate
    00:00 +20°C° 0 mm 2 m/s 750 mmHg 75%
    01:00 +19°C° 0 mm 2 m/s 750 mmHg 77%
    02:00 +19°C° 0 mm 2 m/s 750 mmHg 80%
    03:00 +18°C° 0 mm 2 m/s 750 mmHg 82%
    04:00 +19°C° 0 mm 2 m/s 750 mmHg 81%
    05:00 +20°C° 0 mm 3 m/s 750 mmHg 79%
    06:00 +20°C° 0 mm 3 m/s 750 mmHg 77%
    07:00 +22°C° 0 mm 3 m/s 750 mmHg 71%
    08:00 +25°C° 0 mm 3 m/s 750 mmHg 65%
    09:00 +27°C° 0 mm 4 m/s 750 mmHg 59%
    10:00 +28°C° 0 mm 4 m/s 749 mmHg 54%
    11:00 +29°C° 0 mm 4 m/s 749 mmHg 49%
    12:00 +32°C° 0 mm 4 m/s 749 mmHg 43%
    13:00 +32°C° 0 mm 4 m/s 748 mmHg 42%
    14:00 +33°C° 0 mm 4 m/s 748 mmHg 41%
    15:00 +34°C° 0 mm 4 m/s 748 mmHg 39%
    16:00 +33°C° 0 mm 4 m/s 747 mmHg 43%
    17:00 +33°C° 0 mm 4 m/s 747 mmHg 47%
    18:00 +32°C° 0 mm 4 m/s 746 mmHg 50%
    19:00 +30°C° 0,2 mm 4 m/s 746 mmHg 52%
    20:00 +28°C° 0,2 mm 5 m/s 746 mmHg 54%
    21:00 +27°C° 0,2 mm 5 m/s 746 mmHg 55%
    22:00 +26°C° 0,4 mm 5 m/s 745 mmHg 55%
    23:00 +26°C° 0,4 mm 6 m/s 745 mmHg 55%
    Arată mai mult